Simultaneous Nadir Overpasses (SNOs) Predictions

Prediction of SNOs between AQUA and NOAA-19 Satellite Orbit:

Table of predicted SNOs for the next 14.0 days since TLE Epoch: 1/11/2013
Index Date (AQUA) Time (AQUA) Lat,Lon (AQUA) SZA (AQUA ) Date (NOAA-19) Time (NOAA-19) Lat,Lon (NOAA-19) SZA (NOAA-19 ) Distance(km) Time Diff (sec)
1 01/11/2013 21:51:40 -46.00,-115.51 34.56 01/11/2013 21:50:45 -45.88,-114.69 34.84 65.37 55
2 01/11/2013 22:40:22 48.46, 53.09 143.59 01/11/2013 22:41:03 48.36, 53.59 143.29 38.32 41
3 01/14/2013 02:35:56 -46.05, 173.44 34.78 01/14/2013 02:35:14 -45.89, 174.21 35.03 62.06 42
4 01/14/2013 03:24:28 49.10, -17.72 142.90 01/14/2013 03:25:20 49.02, -17.24 142.58 36.26 52
5 01/16/2013 06:59:12 -56.43, -93.45 102.48 01/16/2013 06:57:59 -56.32, -94.20 102.67 47.83 73
6 01/16/2013 08:08:34 49.74, -88.52 142.16 01/16/2013 08:09:37 49.68, -88.05 141.81 34.41 63
7 01/18/2013 11:41:37 -49.86,-161.36 109.13 01/18/2013 11:40:32 -49.76,-161.92 109.33 42.01 65
8 01/18/2013 12:51:44 53.69,-157.80 138.64 01/18/2013 12:52:57 53.60,-157.26 138.31 37.35 73
9 01/20/2013 16:25:42 -49.15, 127.87 110.28 01/20/2013 16:24:49 -49.08, 127.27 110.46 44.23 53
10 01/20/2013 17:29:24 75.95, 156.56 117.33 01/20/2013 17:30:37 75.59, 158.42 117.02 64.81 73
11 01/22/2013 21:09:48 -48.50, 57.07 111.41 01/22/2013 21:09:06 -48.39, 56.46 111.61 46.27 42
12 01/22/2013 21:58:36 46.06,-134.36 66.32 01/22/2013 21:59:33 45.91,-135.31 66.07 74.71 57
13 01/25/2013 02:17:04 -47.05, 178.48 36.99 01/25/2013 02:17:21 -46.97, 179.08 37.31 47.03 17




NCC Satellite Simultaneous Nadir Overpasses (SNOs) Prediction Service
